CW9583 Weather Reports


time (UTC)temp
C
wind
direction
speed
KPH
gust
KPH
rain 1hr
cm
rain 24hr
cm
rain mn
cm
humidity
%
barometer
mb
20260509084929 11 67 0.0 1.6 0.00 0.00 0.00 85 1024.5
20260509081733 10 172 0.0 0.0 0.00 0.00 0.00 87 1024.5
20260509080704 10 185 0.0 0.0 0.00 0.00 0.00 87 1024.5
20260509075631 10 46 0.0 0.0 0.00 0.00 0.00 87 1024.5
20260509074648 10 46 0.0 0.0 0.00 0.00 0.00 87 1024.4
20260509073621 10 46 0.0 0.0 0.00 0.00 0.00 88 1024.3
20260509072617 9 46 0.0 0.0 0.00 0.00 0.00 88 1024.3
20260509071615 9 46 0.0 0.0 0.00 0.00 0.00 88 1024.3
20260509070635 9 46 0.0 1.6 0.00 0.00 0.00 86 1024.2
20260509065650 9 46 0.0 0.0 0.00 0.00 0.00 86 1024.1
20260509064705 9 46 0.0 0.0 0.00 0.00 0.00 86 1024.0
20260509063636 9 46 0.0 0.0 0.00 0.00 0.00 86 1024.0
20260509062628 9 47 0.0 1.6 0.00 0.00 0.00 85 1024.0
20260509061612 10 56 0.0 0.0 0.00 0.00 0.00 85 1024.0
20260509055437 10 56 0.0 0.0 0.00 0.00 0.00 84 1023.8
20260509054414 10 65 0.0 0.0 0.00 0.00 0.00 83 1023.8
20260509053434 10 141 0.0 0.0 0.00 0.00 0.00 82 1023.7
20260509052410 11 169 0.0 0.0 0.00 0.00 0.00 80 1023.6
20260509051406 11 169 0.0 0.0 0.00 0.00 0.00 79 1023.6
20260509050404 11 169 0.0 0.0 0.00 0.00 0.00 78 1023.5
20260509045356 11 168 0.0 0.0 0.00 0.00 0.00 77 1023.6
20260509044406 12 168 0.0 0.0 0.00 0.00 0.00 77 1023.5
20260509043342 12 195 0.0 1.6 0.00 0.00 0.00 76 1023.3
20260509042348 12 199 0.0 1.6 0.00 0.00 0.00 75 1023.3
20260509041343 12 189 0.0 0.0 0.00 0.00 0.00 74 1023.2
20260509040317 12 189 0.0 0.0 0.00 0.00 0.00 73 1023.1
20260509034239 13 221 0.0 0.0 0.00 0.00 0.00 69 1022.8
20260509033247 13 221 1.6 0.0 0.00 0.00 0.00 69 1022.6
20260509031210 14 217 1.6 6.4 0.00 0.00 0.00 67 1022.5
20260509030211 14 233 0.0 9.7 0.00 0.00 0.00 66 1022.4
20260509025226 14 224 1.6 9.7 0.00 0.00 0.00 65 1022.4
20260509024223 14 243 3.2 11.3 0.00 0.00 0.00 64 1022.4
20260509022049 15 208 3.2 11.3 0.00 0.00 0.00 62 1022.3
20260509021050 15 231 3.2 14.5 0.00 0.00 0.00 62 1022.2
20260509020049 15 150 3.2 14.5 0.00 0.00 0.00 60 1022.3
20260509015032 15 249 3.2 11.3 0.00 0.00 0.00 58 1022.1
20260509014049 16 224 3.2 11.3 0.00 0.00 0.00 58 1022.2
20260509013044 16 227 1.6 11.3 0.00 0.00 0.00 56 1022.1
20260509010942 16 245 4.8 16.1 0.00 0.00 0.00 58 1022.3
20260509005933 16 214 3.2 14.5 0.00 0.00 0.00 56 1022.4
20260509004949 16 250 3.2 17.7 0.00 0.00 0.00 57 1022.4
20260509003953 15 226 6.4 17.7 0.00 0.00 0.00 57 1022.4
20260509003007 16 309 4.8 16.1 0.00 0.00 0.00 57 1022.5
20260509000907 16 287 3.2 12.9 0.00 0.00 0.00 57 1022.4
20260508235853 15 208 6.4 14.5 0.00 0.00 0.00 57 1022.3
20260508234913 16 219 4.8 14.5 0.00 0.00 0.00 55 1022.3
20260508233919 16 292 4.8 17.7 0.00 0.00 0.00 55 1022.3
20260508232913 16 226 4.8 17.7 0.00 0.00 0.00 54 1022.4
20260508230731 15 231 4.8 14.5 0.00 0.00 0.00 58 1022.4
20260508225711 15 219 4.8 22.5 0.00 0.00 0.00 57 1022.4
20260508224658 15 210 6.4 22.5 0.00 0.00 0.00 59 1022.4
20260508223649 15 239 4.8 22.5 0.00 0.00 0.00 61 1022.5
20260508222636 15 261 6.4 19.3 0.00 0.00 0.00 59 1022.5
20260508221651 16 163 3.2 14.5 0.00 0.00 0.00 58 1022.5
20260508220650 15 191 3.2 12.9 0.00 0.00 0.00 60 1022.5
20260508215619 14 206 3.2 16.1 0.00 0.00 0.00 61 1022.4
20260508214627 14 188 4.8 19.3 0.00 0.00 0.00 61 1022.5
20260508213617 13 217 8.0 19.3 0.00 0.00 0.00 62 1022.6
20260508212641 15 218 1.6 8.0 0.00 0.00 0.00 58 1022.6
20260508211606 15 160 1.6 9.7 0.00 0.00 0.00 61 1022.6
20260508205441 14 221 4.8 20.9 0.00 0.00 0.00 60 1022.6
20260508204500 14 227 1.6 16.1 0.00 0.00 0.00 64 1022.4
20260508203428 13 285 4.8 17.7 0.00 0.00 0.00 67 1022.4
20260508202404 12 195 6.4 17.7 0.00 0.00 0.00 67 1022.4
20260508201426 13 246 4.8 14.5 0.00 0.00 0.00 66 1022.3
20260508200405 13 196 3.2 14.5 0.00 0.00 0.00 65 1022.4
20260508195411 13 312 3.2 11.3 0.00 0.00 0.00 67 1022.3
20260508194431 12 186 3.2 11.3 0.00 0.00 0.00 66 1022.3
20260508192322 11 258 8.0 22.5 0.00 0.00 0.00 71 1022.4
20260508191320 11 212 8.0 20.9 0.00 0.00 0.00 72 1022.3
20260508190311 11 192 6.4 20.9 0.00 0.00 0.00 73 1022.3
20260508184129 11 242 6.4 14.5 0.00 0.00 0.00 73 1022.3
20260508183108 11 216 3.2 12.9 0.00 0.00 0.00 75 1022.3
20260508181017 11 212 6.4 12.9 0.00 0.00 0.00 76 1021.9
20260508175948 11 214 4.8 19.3 0.00 0.00 0.00 77 1021.9
20260508173747 11 233 4.8 12.9 0.00 0.00 0.00 78 1021.7
20260508172810 11 227 3.2 12.9 0.00 0.00 0.00 79 1021.5
20260508171825 10 205 3.2 17.7 0.00 0.00 0.00 79 1021.3
20260508165658 10 230 4.8 14.5 0.00 0.00 0.00 79 1021.2
20260508164641 10 231 1.6 14.5 0.00 0.00 0.00 81 1021.0
20260508163641 10 128 3.2 8.0 0.00 0.00 0.00 82 1020.9
20260508162658 10 200 1.6 12.9 0.00 0.00 0.00 82 1020.9
20260508161658 10 221 3.2 12.9 0.00 0.00 0.00 81 1020.8
20260508160652 10 162 3.2 9.7 0.00 0.00 0.00 81 1020.7
20260508155716 10 149 3.2 14.5 0.00 0.00 0.00 82 1020.9
20260508154716 10 229 3.2 16.1 0.00 0.00 0.00 81 1021.0
20260508153740 10 165 4.8 16.1 0.00 0.00 0.00 83 1021.2
20260508152757 9 245 6.4 14.5 0.00 0.00 0.00 84 1021.4
20260508151729 9 154 4.8 14.5 0.00 0.00 0.00 85 1021.3
20260508150742 9 157 1.6 9.7 0.00 0.00 0.00 86 1021.1
20260508145744 9 242 1.6 8.0 0.00 0.00 0.00 87 1021.1
20260508143550 9 204 3.2 12.9 0.00 0.00 0.00 88 1020.8
20260508142533 9 196 4.8 12.9 0.00 0.00 0.00 88 1020.5
20260508141502 9 184 3.2 11.3 0.00 0.00 0.00 88 1020.3
20260508140526 9 195 1.6 11.3 0.00 0.00 0.00 88 1020.1
20260508135512 9 214 1.6 6.4 0.00 0.00 0.00 89 1019.9
20260508133352 8 166 0.0 4.8 0.00 0.00 0.00 90 1019.6
20260508132415 8 207 0.0 3.2 0.00 0.00 0.00 90 1019.6
20260508131410 8 166 0.0 4.8 0.00 0.00 0.00 90 1019.5
20260508130336 8 199 0.0 3.2 0.00 0.00 0.00 91 1019.2
20260508125322 8 154 0.0 4.8 0.00 0.00 0.00 91 1019.1
20260508124329 8 71 0.0 1.6 0.00 0.00 0.00 91 1019.0
20260508123256 8 39 0.0 0.0 0.00 0.00 0.00 90 1019.0
20260508122233 8 131 0.0 0.0 0.00 0.00 0.00 90 1018.8
20260508121226 8 148 0.0 0.0 0.00 0.00 0.00 90 1018.8
20260508120218 8 100 0.0 1.6 0.00 0.00 0.00 90 1018.7
20260508115232 8 96 0.0 0.0 0.00 0.00 0.00 90 1018.8
20260508114225 8 80 0.0 0.0 0.00 0.00 0.00 89 1018.7
20260508113217 8 104 0.0 0.0 0.00 0.00 0.00 89 1018.6
20260508112207 8 34 0.0 1.6 0.00 0.00 0.00 89 1018.5
20260508111201 8 25 0.0 0.0 0.00 0.00 0.00 89 1018.3
20260508110135 8 49 0.0 0.0 0.00 0.00 0.00 89 1018.2
20260508105126 8 46 0.0 1.6 0.00 0.00 0.00 89 1018.1
20260508103023 8 70 0.0 0.0 0.00 0.00 0.00 90 1017.9
20260508101956 8 70 0.0 1.6 0.00 0.00 0.00 90 1017.8
20260508100943 8 49 0.0 3.2 0.00 0.00 0.00 90 1017.8
20260508095958 8 37 1.6 3.2 0.00 0.00 0.00 91 1017.7
20260508091542 9 107 0.0 0.0 0.00 0.00 0.00 88 1017.7